THORAD DELTA 1 DEB, 9696

Orbit data source: Space-Track

THORAD DELTA 1 DEB, 9696 is space debris in SSO originally from a launch on Fri, 15 Nov 1974 UTC launched from the Air Force Western Test Range (AFWTR). Debris objects in space refer to the collection of defunct objects orbiting the Earth. Examples of debris include non-operational satellites, rocket bodies, and fragments generated from explosions, collisions, or faulty payload assembly.

Loading next visibility...
Identifier
9696, 1974-089DV
Orbit
SSO
Country
Flag of USUS
Related business
Manufacturer
Unknown
Mission
Spacecraft
Bus & Motor
Unknown
Mass
Unknown
Launch date (UTC)
1974-11-15 (52 years ago)
Launch vehicle
Unknown
Launch site
Air Force Western Test Range (AFWTR)
Object type
Payload
Rocket body
Debris
Shape & HBR
Unknown shape, 0.1 m
Radar Cross Section
Small (<0.1 m²)

Expand to show TLE details & history
Last TLE update: 23 hours ago

TLE from 23 hours ago
0 THORAD DELTA 1 DEB
1 09696U 74089DV  26144.23151968  .00000189  00000-0  19884-2 0  9990
2 09696 100.8099 323.7793 0187981 347.8971 195.4558 12.22669424296109
Epoch: 2026-05-24T05:33Z
TLE epoch observation values (Epoch: 2026-05-24T05:33:23.300Z)
Latitude
-2.86011°
Longitude
178.05161°
Altitude
1,728.346 km
Speed
6.949 km/s
True Right ascension
09h 32m 56s
True Declination
-2° 50' 42"
Sunlit
Object was in daylight at epoch
Visualization orbit readout
Latitude
Unknown
Longitude
Unknown
Altitude
Unknown
Speed
Unknown
Apparent Right ascension
Unknown
Apparent Declination
Unknown
Sunlit
N/A
Visualization observer readout
Local Sidereal Time
13:55:02
Azimuth
Unknown
Elevation
Unknown
Doppler factor
Unknown
Orbital elements
Apogee altitude
1,728.034 km
Perigee altitude
1,428.896 km
Semi-major axis
7,956.602 km
Eccentricity
0.0188
Inclination
100.8099°
RAAN
323.7793°
Arg. of periapsis
347.8971°
True anomaly
194.89448°
Mean anomaly
195.4558°
Eccentric anomaly
195.17388°
Mean motion
3.0581 °/min
Orbital period
117.72 mins
BSTAR
0.0019884
Loading maneuver chart data...
Computing Atmospheric mass density...

Documentation

Showing up to 5 results
|